Wind_Speed
17 16 15 14 13 12 12 11 10 10 10 9 9 8 8 8 8 10 9 9 10 10 8 9 10 11 12 13 12 12 12 12 13 12 12 13 13 13 14 15 16 17 18 19 20 21 17 15 19 20 19 20 20 21 22 22 20 21 22 23 26 25 21 28 39 41 40 35 30 30 30 33 36 36 38 38 36 36 30 26 32 29 22 23 18 12 20
17 16 15 14 13 13 13 12 12 12 12 11 11 10 10 10 10 11 10 9 10 10 9 9 11 12 13 13 12 12 12 12 12 13 12 12 12 13 14 14 15 17 18 18 19 21 18 15 18 19 18 19 20 20 22 20 19 22 23 24 26 21 19 26 30 29 33 34 31 34 38 38 38 38 39 39 39 38 34 35 35 24 21 22 13 14 26
17 16 16 15 15 15 15 15 15 14 14 13 12 11 10 10 10 11 11 10 9 9 11 11 11 13 14 13 12 11 11 12 12 12 12 12 12 13 14 15 16 17 17 18 19 20 18 17 17 18 19 19 20 21 20 18 20 23 23 24 25 23 23 23 16 10 13 18 21 31 41 42 40 41 41 37 36 34 33 36 30 21 26 30 19 22 38
18 18 17 17 17 17 17 16 15 15 14 13 11 10 8 8 9 10 11 11 8 8 12 12 11 12 13 12 12 11 10 11 11 11 11 12 12 13 15 16 16 17 18 18 18 19 18 17 17 18 19 19 20 21 18 17 21 24 24 25 26 25 26 24 20 18 19 24 29 31 35 38 40 44 41 33 30 30 30 30 26 25 32 35 29 34 48
19 19 19 18 18 17 16 15 14 13 12 11 9 8 7 6 6 7 8 8 8 8 11 12 11 11 11 11 12 11 10 10 10 10 10 11 13 13 15 16 16 17 19 18 18 18 17 16 17 18 17 18 19 20 17 16 21 25 25 27 27 28 28 26 26 29 30 32 33 31 30 34 39 43 38 30 29 30 26 22 25 28 27 29 38 47 52
20 20 19 18 18 17 15 14 13 12 11 10 9 8 6 6 6 6 6 7 8 8 10 11 11 10 10 10 11 11 10 9 9 10 10 11 13 13 14 16 16 17 18 17 18 18 16 16 17 17 17 17 18 18 16 16 22 26 26 29 30 29 29 29 31 35 34 31 30 31 32 36 39 37 30 27 29 29 25 24 30 32 25 31 48 55 52
22 21 20 19 18 17 16 15 14 13 11 10 10 8 7 7 7 7 7 7 8 9 9 10 10 10 9 9 10 11 10 9 9 9 10 11 12 13 14 15 16 17 17 17 18 18 17 18 18 18 18 18 20 19 16 17 24 27 27 30 30 28 30 31 32 38 38 32 31 34 37 41 37 25 20 25 29 28 27 31 36 37 38 45 53 54 50
23 21 20 19 18 16 15 15 14 13 12 11 10 9 7 7 7 7 7 6 7 8 8 8 9 9 8 9 9 9 9 9 8 9 10 11 12 13 14 15 16 16 17 17 18 18 18 18 19 19 18 18 20 19 16 19 24 26 28 29 29 29 32 32 33 39 39 36 36 39 40 38 25 17 24 33 32 31 33 36 41 45 50 54 52 49 47
22 21 19 18 17 16 15 14 13 12 11 11 10 9 8 8 7 7 6 6 6 7 7 8 8 8 8 8 8 8 9 8 8 8 10 11 12 13 14 15 15 15 16 17 17 17 17 17 18 18 17 19 20 19 18 21 23 25 27 27 28 31 32 34 34 36 39 39 40 43 43 30 16 21 36 37 32 34 37 40 45 49 52 53 50 45 44
20 19 18 17 16 15 13 12 12 11 10 9 9 8 8 8 7 7 7 5 5 6 6 7 7 7 7 8 8 8 8 8 8 9 10 11 12 13 13 15 15 15 16 16 17 17 17 16 16 16 16 19 20 18 18 20 23 26 26 26 29 31 32 35 33 33 40 41 39 44 42 23 14 23 31 30 32 37 41 47 52 53 51 49 43 39 44
17 16 15 14 13 12 12 11 10 10 9 8 8 7 8 8 7 7 7 6 5 5 6 6 5 6 7 7 7 7 8 8 8 9 9 10 12 12 13 14 14 14 15 16 16 17 16 16 16 14 15 18 19 17 16 18 22 24 25 28 31 32 32 33 29 30 37 40 42 42 28 12 16 27 25 27 35 41 47 55 57 57 55 45 36 38 50
14 13 12 11 11 10 10 10 9 8 8 7 7 6 7 7 7 7 7 6 5 5 5 5 4 5 6 7 7 7 8 8 8 9 10 10 11 11 12 13 14 14 15 15 16 16 16 15 15 14 14 16 17 15 14 16 20 23 25 27 31 34 32 31 30 30 33 37 38 27 13 16 29 30 24 28 37 44 53 58 57 56 50 39 36 47 60
11 10 9 9 9 9 9 9 8 8 7 6 6 6 6 6 7 7 7 6 6 5 4 4 4 4 5 6 7 7 7 8 8 9 10 10 11 11 12 13 13 13 14 15 15 16 16 15 15 14 13 15 15 12 11 15 20 23 26 27 32 34 31 31 32 29 30 36 29 14 18 30 29 23 26 35 44 48 53 59 59 49 37 35 47 60 63
9 8 8 7 7 7 8 8 8 7 6 5 5 5 5 5 6 7 7 7 6 5 4 4 3 3 4 6 6 6 7 8 8 9 10 10 11 11 11 13 12 13 14 15 15 17 16 15 16 14 13 15 16 12 11 16 21 23 25 27 31 31 30 32 30 24 25 33 31 29 33 27 16 21 33 41 47 52 54 56 51 38 33 45 59 64 63
8 8 7 6 5 6 7 8 8 7 6 5 5 5 5 5 5 6 7 7 7 6 4 3 3 3 4 6 6 7 7 8 8 9 10 10 11 11 12 13 12 13 14 15 15 18 17 17 18 16 14 17 18 13 12 17 21 22 24 27 30 29 29 29 26 23 26 29 28 28 24 14 15 28 36 40 49 57 58 53 42 36 46 59 62 61 64
8 7 6 6 6 7 8 9 8 7 6 5 5 5 5 5 5 6 6 7 7 6 4 3 3 3 4 5 6 6 7 7 8 9 10 10 11 11 12 12 12 12 14 15 16 18 19 18 19 17 15 17 18 15 15 20 22 22 24 27 30 29 28 27 25 26 28 24 18 14 12 17 28 36 40 46 54 59 58 49 41 48 60 61 60 62 64
7 6 6 7 9 9 10 9 9 8 7 6 5 5 6 6 6 6 6 7 7 6 4 3 3 3 4 5 5 6 7 7 8 9 10 10 11 11 11 12 12 12 13 15 16 17 19 18 18 16 16 18 18 17 18 22 24 25 27 29 30 29 28 29 28 29 30 24 19 16 17 23 31 38 46 53 57 59 49 32 37 58 64 59 62 64 60
6 7 8 10 11 11 10 10 9 8 7 6 6 5 6 6 6 6 7 7 7 6 4 3 3 3 4 4 5 6 7 7 8 9 10 10 10 11 11 12 12 11 12 14 15 17 18 19 18 17 16 18 19 18 19 22 23 25 29 31 31 29 29 30 31 34 33 27 23 25 25 26 31 40 51 57 58 55 40 26 42 62 63 60 62 60 57
7 8 10 11 11 11 11 10 9 8 7 6 6 6 6 6 7 7 7 7 7 6 4 3 3 3 4 4 5 6 7 8 8 10 10 10 11 11 11 11 11 11 12 13 15 17 18 18 19 18 17 19 19 18 20 23 22 22 27 30 29 28 30 31 31 33 33 30 30 29 26 30 40 47 51 55 53 47 41 43 54 60 60 61 60 56 57
8 10 11 12 13 12 12 11 9 8 7 7 7 6 7 7 7 7 8 8 7 6 4 3 3 3 3 4 5 6 7 8 8 9 10 10 10 11 11 11 11 11 11 13 15 17 17 18 19 18 18 19 21 20 21 22 21 21 25 27 25 26 29 29 30 32 32 30 26 19 20 35 48 50 50 51 47 43 47 54 57 57 58 59 56 55 58
11 12 13 13 13 13 12 11 9 9 8 8 8 8 8 8 8 8 8 8 7 5 4 4 4 3 3 4 5 6 7 8 8 9 10 10 10 10 11 11 11 10 11 12 14 17 17 17 18 19 19 20 21 20 21 21 19 20 24 24 23 25 27 26 28 29 28 26 23 20 27 40 46 45 46 47 44 45 50 54 56 58 56 53 53 56 57
13 13 13 13 13 12 12 10 9 8 8 8 8 8 8 8 8 8 7 7 6 5 4 4 4 3 3 4 5 6 7 8 8 9 10 10 10 10 11 11 11 10 11 12 14 17 17 17 18 19 20 22 21 20 21 21 18 20 23 23 23 26 26 26 28 28 26 29 30 29 33 38 40 40 43 44 45 48 50 52 55 56 53 51 54 56 55
13 13 13 12 12 11 11 9 8 8 8 8 8 8 8 8 8 7 7 6 6 6 5 4 4 3 2 3 5 6 7 8 8 9 10 10 10 10 11 11 11 11 12 12 14 16 17 17 18 19 21 23 23 22 22 21 19 21 24 24 25 27 27 28 30 32 33 35 33 32 35 38 39 40 42 44 46 49 50 52 53 52 51 52 53 54 56
12 12 12 11 10 10 10 9 8 8 9 9 9 9 9 8 8 7 6 6 6 5 5 4 4 3 3 4 5 6 8 9 9 9 10 10 10 11 11 12 11 11 12 13 14 16 18 18 18 19 22 23 23 23 22 21 21 23 26 27 28 30 31 31 33 35 38 38 36 38 41 42 41 41 44 46 47 49 51 52 51 49 50 51 52 54 56
11 11 11 10 10 10 10 10 10 10 10 10 10 10 9 8 7 7 7 6 6 5 4 4 4 3 3 4 6 7 8 9 9 10 11 11 11 11 11 12 12 11 12 13 13 15 17 18 18 19 21 23 23 23 23 22 22 24 26 28 31 32 32 34 35 37 38 39 39 41 43 42 41 43 45 47 49 52 53 52 50 50 50 50 51 53 55
10 11 11 11 11 12 12 12 12 12 12 11 11 10 9 8 7 7 7 6 6 5 4 4 3 3 3 5 6 8 9 9 10 11 11 11 11 11 11 12 12 12 12 13 13 14 16 18 19 19 21 24 24 24 24 24 24 25 26 28 31 32 32 34 37 40 40 41 42 44 45 44 43 44 46 48 51 53 54 52 51 51 51 51 52 53 54
11 12 12 12 12 13 13 13 13 13 12 11 11 10 9 8 7 7 6 6 5 3 3 3 3 3 3 5 7 8 9 10 10 11 11 12 12 11 12 13 13 12 12 13 13 14 16 18 19 19 21 24 25 25 25 25 25 26 27 28 30 32 33 35 38 41 43 43 43 45 46 46 46 46 47 49 51 53 53 52 51 51 52 53 54 54 54
12 12 12 12 12 13 13 13 12 12 11 10 10 9 8 7 7 6 5 4 3 3 3 3 3 3 4 6 8 9 10 10 10 11 11 12 11 11 12 13 13 12 12 13 14 14 15 18 20 20 21 23 25 26 26 26 26 26 27 29 31 32 33 34 36 39 41 41 41 41 42 44 46 46 46 48 51 53 53 52 51 51 51 52 53 55 55
13 13 13 13 13 13 13 13 12 11 10 9 8 7 7 6 5 5 4 3 3 3 3 3 4 4 5 6 8 9 10 11 11 11 12 12 11 12 12 13 13 13 12 13 14 14 15 18 20 20 21 23 25 26 26 27 28 28 29 30 31 31 32 33 34 37 38 39 39 40 40 42 45 45 46 48 52 53 52 51 50 50 50 50 52 54 55
15 15 15 15 15 14 14 14 12 11 10 9 8 7 6 6 4 3 3 3 3 3 3 3 4 6 6 7 9 10 11 11 11 11 12 12 12 12 13 13 14 13 13 13 14 14 15 17 20 21 21 22 24 26 27 28 30 31 31 32 32 31 31 32 33 36 38 38 39 39 40 41 43 44 46 49 52 52 51 50 49 49 49 49 51 52 53
15 15 15 15 15 15 15 14 13 12 10 8 7 6 5 5 4 3 3 3 3 3 3 4 5 7 7 8 9 11 11 12 11 12 12 12 12 12 13 14 14 13 13 14 14 14 15 17 20 21 21 22 25 26 27 29 32 33 33 33 32 32 33 33 33 35 37 38 39 39 39 40 43 45 47 50 52 51 49 48 48 48 48 48 49 51 52
15 15 15 15 15 15 15 15 13 11 9 7 6 5 4 4 4 3 3 3 3 3 4 5 6 8 8 9 10 11 12 12 12 12 12 12 12 13 13 14 14 14 13 14 15 15 16 17 20 21 22 22 25 26 27 29 32 34 34 34 34 34 34 34 34 35 36 38 40 41 41 42 44 47 49 51 51 49 48 48 48 47 47 47 48 49 50
15 15 15 14 14 14 14 13 11 9 8 6 5 5 4 4 3 3 3 3 4 4 5 6 7 8 9 10 11 12 12 12 12 12 12 12 12 13 14 14 14 14 14 14 15 16 17 18 20 22 22 23 25 26 28 30 33 34 35 35 35 35 34 34 34 35 36 37 39 41 43 44 46 47 48 49 49 48 48 48 48 47 47 47 48 48 49
15 15 15 14 14 13 13 12 11 9 7 6 5 5 4 4 4 4 4 4 4 5 5 7 8 9 10 11 11 12 13 13 12 12 13 12 12 14 14 14 14 14 14 15 16 17 17 19 21 22 22 23 25 27 29 32 34 35 36 36 36 36 36 35 35 35 36 37 38 40 43 44 45 46 47 48 49 49 48 49 49 48 47 48 48 49 50
16 16 16 15 13 12 12 11 10 8 7 6 5 5 4 4 4 4 4 5 5 6 6 8 9 10 11 12 12 12 13 13 12 13 12 12 13 14 14 14 14 14 14 15 16 17 18 19 21 22 22 23 25 27 31 33 34 35 36 36 36 37 37 37 36 36 37 38 39 40 42 44 45 46 47 49 50 50 49 49 49 49 48 48 49 50 51
18 17 16 14 12 11 10 10 8 7 6 5 5 5 4 4 4 5 5 6 6 7 7 9 10 11 11 12 12 12 12 12 12 13 12 13 13 14 14 14 14 14 15 15 16 17 19 20 21 22 22 23 25 28 32 34 34 35 36 37 37 38 38 38 38 38 38 38 39 40 42 43 44 46 48 49 50 50 49 49 49 49 49 49 49 50 51
20 18 16 13 11 10 9 8 7 6 5 5 5 5 5 5 5 6 6 7 7 8 9 10 11 11 11 12 12 12 12 13 13 13 12 13 14 14 14 14 14 14 15 15 15 17 19 21 22 22 22 23 26 30 32 34 35 35 36 37 37 38 38 38 39 39 38 38 39 40 41 43 45 46 48 49 50 50 49 49 49 49 49 49 49 50 51
20 18 15 12 9 8 8 7 7 6 5 5 5 6 6 6 6 6 7 7 8 9 9 10 11 11 11 12 13 12 12 13 13 13 13 14 14 13 14 15 14 15 16 15 15 17 20 22 23 23 22 23 27 31 33 34 35 36 36 37 38 38 38 38 39 39 39 39 39 41 43 45 46 47 48 49 50 50 49 48 48 48 48 48 49 49 50
19 16 13 10 8 7 7 7 6 6 5 5 6 6 7 7 7 7 7 8 8 9 9 10 10 11 12 13 13 13 13 13 13 13 13 13 13 13 14 15 14 15 16 16 16 18 21 23 24 24 24 25 29 32 33 34 35 36 36 37 37 38 38 38 38 39 39 40 40 42 44 46 47 47 48 49 49 49 49 48 48 47 47 47 48 49 49
17 15 12 9 8 6 6 7 6 6 6 6 7 7 8 8 8 8 8 7 7 8 9 10 11 12 13 14 14 14 14 13 13 13 13 12 13 14 14 14 14 16 17 17 18 20 23 24 25 25 26 28 31 33 34 35 35 36 36 37 37 38 38 38 38 39 39 40 40 42 43 45 46 47 48 49 49 49 49 48 47 47 47 47 47 48 48
16 14 11 9 7 7 7 7 7 6 7 7 8 8 8 8 8 8 8 7 7 9 10 12 13 14 15 15 15 15 14 13 13 13 13 13 14 15 14 14 14 15 15 17 20 23 24 25 26 26 28 31 33 33 34 35 36 36 36 37 37 38 38 38 38 39 39 40 40 41 42 44 45 46 48 49 49 49 48 48 47 46 46 46 46 47 48
15 13 11 9 8 7 7 7 7 7 7 8 8 9 8 8 8 8 8 8 9 11 12 13 14 15 16 17 16 16 15 14 13 13 13 14 15 16 15 14 14 14 15 19 22 24 24 26 27 29 31 33 34 34 35 36 36 36 37 37 37 37 38 38 38 39 39 39 39 40 41 43 45 46 47 48 49 49 48 48 47 46 45 45 46 46 47
14 13 12 9 8 8 8 7 7 7 7 7 8 9 8 8 8 8 8 8 10 12 14 15 16 16 17 17 17 16 15 14 14 15 15 15 16 16 15 15 15 17 19 21 23 24 24 26 28 31 33 34 34 35 36 36 37 37 36 36 37 37 38 38 38 38 38 38 39 39 41 42 44 45 46 47 48 48 48 47 46 45 45 45 45 46 47
12 12 11 9 9 9 9 7 6 7 7 7 8 8 7 8 8 8 8 9 11 13 14 15 16 17 17 18 18 17 15 15 15 15 15 15 15 15 15 16 18 20 21 22 23 24 25 27 29 32 34 34 35 35 36 37 37 37 37 37 37 37 38 38 38 38 38 38 38 39 40 41 43 45 46 47 47 48 47 47 46 45 44 44 44 45 46
11 11 10 9 9 10 8 7 6 7 7 7 8 8 8 8 9 9 10 11 12 13 15 16 16 17 18 18 17 16 16 16 16 16 16 16 16 15 16 17 19 20 20 22 23 25 27 29 31 33 33 34 35 36 36 37 38 38 37 37 37 37 37 38 38 38 38 38 38 38 39 41 42 44 45 46 47 48 48 47 46 45 44 44 43 44 45
10 10 9 8 8 9 8 7 7 7 7 7 8 8 9 10 10 10 11 12 13 14 15 16 17 17 18 18 17 17 17 17 16 16 16 16 16 17 18 19 18 17 18 21 25 27 29 31 33 34 34 35 35 35 36 37 38 38 38 37 37 37 37 38 38 38 38 38 38 38 38 39 41 43 44 46 46 47 48 47 47 46 45 44 43 43 44
10 10 9 8 7 8 8 7 7 7 7 7 8 9 10 10 11 11 12 13 14 15 16 17 18 18 18 18 18 18 18 17 17 17 16 17 18 19 18 18 17 16 18 23 28 30 31 33 34 35 35 36 37 36 37 37 38 38 38 38 37 37 37 38 38 38 38 37 37 37 38 39 40 42 44 45 46 46 47 47 47 46 45 44 43 43 43
11 11 9 8 8 8 9 8 8 8 8 9 9 10 10 11 11 12 13 14 15 16 17 18 19 19 19 19 19 19 19 18 18 18 18 19 19 18 17 18 19 20 22 26 31 33 33 35 36 36 36 37 38 37 38 38 38 39 39 38 38 38 38 38 38 38 38 37 37 37 37 38 40 41 43 44 45 46 46 46 46 45 45 44 43 43 43
12 11 11 10 9 10 10 10 9 10 10 11 11 12 12 12 13 14 15 15 16 18 19 20 20 21 21 21 21 21 20 19 18 20 21 21 20 19 19 21 23 24 26 30 33 35 35 36 37 37 37 38 39 39 39 39 39 39 39 39 39 38 38 38 38 38 38 37 37 37 37 37 39 40 42 43 44 45 45 45 45 45 45 44 43 43 43
12 12 11 11 11 11 11 11 11 11 12 12 13 13 13 14 14 15 16 17 18 19 20 21 22 22 22 23 22 22 21 20 22 24 24 23 21 22 24 26 27 29 31 33 35 35 36 37 38 38 38 38 39 39 40 40 40 40 40 40 40 39 39 39 38 38 38 38 37 37 37 37 38 39 41 42 43 44 45 45 45 45 44 43 43 42 43
14 13 13 13 13 14 14 14 14 14 14 14 14 14 15 15 15 16 17 18 19 21 21 22 23 23 24 24 24 23 23 24 26 27 26 23 23 26 29 30 31 33 34 36 36 36 37 38 38 39 39 39 40 40 41 41 41 41 41 41 41 40 40 39 39 39 39 38 38 37 37 37 37 39 40 41 43 44 44 44 44 44 43 43 42 41 41
16 16 15 15 16 16 16 16 16 16 16 17 17 17 17 17 17 18 19 19 20 21 22 23 24 24 25 26 26 25 25 26 27 28 28 26 25 27 31 32 33 34 36 37 38 38 39 39 40 40 41 40 40 41 41 42 42 42 42 42 41 41 40 40 40 39 39 39 38 37 37 37 37 38 39 40 42 43 44 44 43 43 42 42 41 40 40
Wind_Direction
127 126 125 124 125 125 123 124 121 119 119 115 112 109 105 106 106 103 103 106 107 102 100 104 103 99 96 94 91 85 80 73 64 56 48 43 37 31 27 20 16 14 10 9 7 5 7 8 5 3 358 354 350 349 351 350 352 354 353 352 349 345 339 330 328 332 339 345 347 346 347 341 334 333 332 329 326 325 318 306 307 302 292 300 296 284 311
121 121 121 119 119 118 115 115 114 113 114 110 107 104 105 109 106 102 104 103 102 102 99 93 93 93 91 89 85 78 73 67 59 53 45 39 35 29 24 20 17 13 10 8 7 6 7 5 2 1 355 352 353 351 352 353 353 353 353 352 350 349 345 338 334 335 340 343 344 341 339 335 329 329 332 330 329 330 325 319 317 305 297 311 306 289 307
118 117 116 115 114 112 110 110 110 109 108 104 103 103 104 107 105 104 104 98 98 105 98 87 82 82 82 80 77 72 67 61 54 49 41 35 32 25 21 18 15 13 10 8 7 7 6 2 360 359 354 352 353 352 353 354 352 353 353 351 350 348 347 345 337 324 325 324 325 329 328 326 325 329 334 335 334 334 328 323 318 305 308 314 304 295 307
115 113 112 111 110 110 109 110 108 106 104 102 103 104 103 104 103 103 101 98 98 98 93 88 78 72 72 71 70 66 62 57 51 45 38 33 28 23 18 15 12 11 9 8 9 6 4 3 360 358 356 352 351 351 352 352 352 353 351 350 350 346 345 346 333 315 309 308 315 327 327 321 323 330 335 341 341 335 329 322 315 313 315 313 310 312 314
115 113 112 111 110 109 109 108 106 104 102 102 102 100 100 104 103 99 98 101 102 94 89 87 78 68 65 64 63 61 57 55 49 42 36 29 24 20 16 13 11 10 8 8 7 5 4 3 1 359 357 352 350 349 349 351 352 351 350 350 350 343 339 341 332 323 323 324 327 333 331 323 324 328 334 341 338 330 329 324 323 328 322 310 316 322 319
114 112 111 109 108 107 106 104 103 101 99 98 96 94 95 99 98 96 100 107 104 94 87 84 77 69 61 58 57 55 51 50 45 39 33 26 22 18 14 12 11 9 9 7 5 4 3 2 1 359 356 354 352 350 349 352 352 351 351 348 346 341 336 337 333 328 332 337 336 337 335 329 329 332 335 337 333 332 336 334 334 337 324 311 319 323 320
110 108 106 105 103 101 100 98 97 95 94 92 90 88 89 92 94 92 94 102 99 91 84 80 75 67 57 52 52 48 45 44 40 35 30 24 20 16 12 12 10 9 8 6 4 3 360 359 0 359 358 355 352 353 355 353 350 350 348 345 344 340 336 338 336 330 335 344 343 340 337 332 334 340 339 335 333 333 333 332 334 334 325 321 323 322 319
105 103 102 100 98 96 94 92 90 88 86 84 81 79 78 81 88 87 85 90 92 89 83 76 72 64 53 48 47 44 41 41 36 32 26 21 18 15 12 12 10 9 8 5 5 2 359 358 357 357 359 356 352 354 356 350 347 346 344 343 343 340 338 342 337 328 335 348 344 337 337 336 335 336 334 334 334 331 330 331 334 333 329 327 325 321 321
102 101 99 97 95 92 89 86 83 81 79 76 73 71 69 67 70 77 78 77 81 85 82 74 68 59 49 45 43 40 37 35 32 29 24 18 16 14 12 12 11 9 8 6 4 3 360 358 356 354 356 355 352 350 346 344 343 341 342 343 345 344 342 343 340 327 331 345 343 336 339 342 336 335 335 334 332 332 333 334 335 335 330 327 327 328 329
99 98 97 95 93 90 87 83 80 76 73 70 66 62 62 58 54 61 66 64 69 76 75 70 63 53 45 41 38 36 33 30 28 26 21 16 15 13 12 12 10 10 9 6 4 2 359 358 356 354 355 352 349 343 338 339 339 339 343 344 346 348 344 344 343 327 327 342 342 334 340 348 344 338 333 325 324 330 332 332 334 335 331 328 328 326 323
94 93 92 91 89 85 82 78 74 71 66 62 59 54 53 51 44 47 52 50 54 62 65 64 58 46 39 36 34 33 29 27 26 22 18 15 14 13 12 10 10 10 9 5 4 1 358 357 356 354 354 349 343 338 332 334 338 341 345 345 346 349 346 346 343 326 326 338 340 336 345 0 331 323 319 320 329 333 332 332 332 332 330 326 317 313 319
91 90 89 88 86 80 74 68 61 58 55 51 48 43 43 44 38 34 38 40 40 47 54 56 50 39 33 29 29 28 24 23 22 17 15 13 13 13 12 10 10 10 7 5 4 360 356 356 356 353 351 346 341 334 326 331 339 343 345 346 347 347 347 346 344 332 326 335 341 343 349 336 322 313 308 318 327 327 326 327 330 331 328 321 315 320 327
88 88 88 88 86 76 65 54 45 39 36 36 36 31 30 33 30 26 26 27 27 31 39 44 41 32 25 23 23 24 21 20 17 12 10 10 12 12 10 10 10 8 6 4 2 1 358 355 356 354 348 346 345 337 328 334 341 343 344 346 347 347 347 346 345 340 333 336 342 333 320 325 322 310 314 323 327 330 331 330 331 330 324 320 324 329 331
84 84 84 85 82 65 44 32 26 21 18 16 18 16 15 16 17 17 16 15 14 15 22 30 30 23 16 14 14 18 19 16 12 8 6 8 10 10 8 9 9 7 6 5 1 1 359 356 359 358 350 351 355 349 339 341 341 341 342 345 347 347 347 345 345 345 339 335 328 320 323 328 325 324 333 334 331 333 334 330 327 325 325 328 331 331 332
81 81 80 76 63 37 17 10 9 8 6 2 0 0 357 355 0 5 7 5 4 3 6 13 15 13 7 5 8 14 17 14 8 4 4 6 8 8 7 7 7 6 5 4 2 1 0 1 4 4 358 357 357 351 341 341 340 340 341 344 347 347 347 347 344 340 340 335 326 326 329 328 326 329 331 328 326 327 328 326 325 329 333 333 333 332 332
82 78 70 52 29 12 6 4 2 360 358 353 348 344 339 338 345 353 355 357 356 354 350 350 355 358 359 360 5 11 12 10 4 1 4 6 6 6 5 4 5 5 4 3 3 1 3 5 7 7 3 359 355 347 340 340 340 341 343 345 347 345 345 347 343 339 340 336 323 315 304 302 316 321 322 323 324 325 328 328 330 334 334 334 334 333 333
70 56 37 20 11 6 5 3 359 356 351 343 338 332 328 327 334 342 344 347 348 346 339 336 341 348 355 358 3 9 8 3 2 1 3 5 4 3 3 2 2 3 3 3 3 2 4 7 8 7 3 359 356 350 344 342 342 342 344 345 345 345 346 347 345 341 341 335 318 305 301 303 311 318 323 323 323 327 335 337 329 331 333 334 334 333 333
37 22 10 2 0 0 360 358 355 349 342 334 328 321 319 324 330 334 336 339 341 338 328 326 335 337 343 352 358 4 5 360 360 2 2 2 3 1 1 0 360 1 2 3 4 4 5 7 8 7 3 360 358 353 347 346 343 342 343 343 344 346 346 346 345 341 340 337 322 312 313 314 317 322 324 322 325 335 343 333 322 327 332 333 333 334 336
9 359 353 350 349 350 351 352 349 341 334 326 320 316 320 328 327 326 331 333 333 331 323 319 329 327 330 345 354 359 1 359 359 1 360 359 0 359 358 359 358 359 0 3 4 5 6 8 8 6 2 359 358 354 350 347 344 342 344 344 344 345 343 343 343 340 339 335 325 319 321 324 325 325 324 325 333 339 334 324 325 330 332 333 334 336 338
348 342 340 339 339 339 342 344 341 336 331 323 320 324 327 326 322 323 328 328 325 326 323 314 318 319 324 342 351 354 358 359 357 356 357 357 357 355 357 358 357 357 360 2 5 6 7 10 9 6 2 358 355 353 350 348 344 344 346 346 343 341 340 340 340 338 336 332 328 324 323 323 324 326 327 330 335 333 326 326 330 332 333 334 336 339 340
334 332 331 330 331 331 334 336 335 330 328 325 326 328 321 317 320 322 323 322 320 323 322 312 311 316 325 339 348 352 355 356 353 352 354 355 355 355 356 356 356 358 359 1 5 7 8 10 9 5 1 357 354 351 349 348 347 345 346 346 343 340 339 335 333 335 331 322 321 322 318 318 323 326 326 327 330 329 328 330 331 333 335 337 339 340 340
325 325 324 323 325 325 326 329 328 322 321 321 320 314 308 312 321 320 318 320 318 316 314 309 310 314 322 336 346 351 352 350 349 350 351 352 353 354 354 354 355 357 359 0 4 7 9 9 8 4 0 356 354 352 349 348 348 346 346 345 342 340 338 330 327 329 322 316 321 322 316 317 323 326 325 327 331 331 332 332 333 335 338 340 341 340 340
323 322 322 321 321 320 320 321 319 313 311 311 308 306 310 320 323 319 319 320 316 312 309 306 309 311 315 336 346 349 349 347 346 348 349 349 351 352 352 353 354 355 357 359 2 5 7 7 4 1 360 357 355 354 352 349 347 345 345 343 341 340 338 332 330 329 326 326 331 327 321 324 329 329 329 332 333 333 334 335 335 337 340 342 342 341 340
323 322 323 322 319 317 314 315 314 312 310 312 314 317 324 326 323 321 321 318 314 313 308 302 303 301 313 338 346 345 345 345 345 347 347 347 348 349 349 352 353 354 355 356 358 0 2 2 0 358 359 358 356 355 354 349 346 345 343 342 343 342 338 335 334 331 329 332 336 333 331 335 337 335 334 335 334 336 338 338 338 340 342 343 343 342 341
328 327 326 325 321 318 315 315 316 316 316 318 321 323 322 323 323 321 319 316 315 312 305 302 302 295 312 335 341 341 345 346 344 344 344 345 346 346 346 349 351 352 353 353 352 355 357 358 357 356 356 356 356 356 354 350 346 345 342 341 342 341 338 336 334 332 332 334 335 333 333 337 338 337 336 336 337 339 340 340 341 342 343 343 344 343 343
334 332 330 327 323 321 319 318 318 319 319 318 318 316 316 320 322 320 319 318 312 301 299 310 308 294 308 332 337 341 346 345 342 341 342 343 343 342 344 347 348 347 349 349 348 349 352 354 354 351 352 354 355 355 354 351 347 345 344 342 340 338 337 336 333 333 338 340 337 335 336 339 341 340 339 338 339 340 341 342 343 344 344 344 345 345 345
338 338 336 333 329 327 325 325 324 323 322 321 319 320 322 322 321 320 318 315 309 302 305 318 314 299 312 330 335 339 343 342 340 340 340 340 339 340 342 345 344 343 345 346 344 344 347 351 350 347 348 351 353 353 352 350 348 346 344 342 340 338 339 339 335 336 340 342 338 336 337 338 340 341 340 339 340 341 342 344 345 345 345 344 345 346 347
349 349 349 347 345 340 337 336 334 332 330 327 326 327 325 321 319 319 315 310 313 315 313 318 318 309 313 327 332 336 339 340 337 337 338 337 336 338 340 341 340 340 341 342 341 340 342 347 347 344 344 347 349 350 349 348 348 347 345 344 343 341 340 339 335 334 336 338 337 336 335 336 339 341 340 339 340 343 344 345 345 345 345 345 345 346 347
0 360 360 359 357 353 349 346 343 339 337 335 334 332 328 324 321 317 316 319 324 316 310 322 329 313 308 321 330 333 337 337 336 336 336 335 334 336 337 338 337 336 336 338 338 337 338 343 344 341 340 342 345 345 346 346 347 348 347 345 344 343 340 338 334 332 334 336 337 337 337 337 339 340 340 341 343 345 345 345 344 345 346 347 347 347 347
5 4 3 1 360 358 356 351 347 344 342 341 339 336 332 331 327 323 329 331 317 309 316 332 331 319 314 322 328 330 334 335 334 335 335 334 334 334 335 335 334 332 332 335 337 335 335 338 340 337 336 338 341 342 342 343 346 348 347 345 344 343 341 340 336 334 334 336 338 340 339 338 338 339 341 343 345 345 345 345 344 346 347 348 348 347 347
3 2 2 1 359 358 356 353 350 349 346 342 338 336 335 336 335 337 339 325 310 315 328 331 331 329 325 323 325 328 333 334 334 334 334 333 332 333 332 331 331 329 330 332 333 332 331 333 334 334 334 335 336 338 339 342 344 345 345 344 344 344 343 342 339 336 335 337 339 341 341 340 340 342 344 345 346 345 345 345 345 347 348 348 348 348 349
359 358 358 358 357 357 356 354 352 349 344 339 340 344 344 341 339 338 334 324 319 324 328 331 335 335 329 324 326 329 332 332 332 333 333 331 331 331 330 328 327 328 329 329 330 330 329 329 330 332 333 332 332 334 337 340 342 342 342 343 345 345 344 342 340 338 338 339 340 341 343 343 343 344 345 346 346 345 344 345 347 348 348 348 349 350 350
355 353 353 353 354 355 356 355 353 350 348 350 356 357 348 339 337 340 337 332 327 325 327 332 336 334 329 327 327 329 331 332 332 331 331 331 330 329 328 327 327 327 327 327 327 327 326 326 329 331 331 329 329 331 336 340 341 341 342 343 344 345 344 342 340 340 341 340 340 341 344 345 346 345 344 344 345 345 346 346 348 348 348 348 349 351 352
351 348 347 347 349 352 355 356 356 357 359 0 359 355 346 337 335 338 339 337 329 326 330 334 333 331 331 330 328 329 330 331 331 331 330 329 329 328 326 325 325 325 324 324 325 325 324 324 327 329 329 328 327 330 336 339 340 340 342 342 343 343 343 342 342 342 342 342 342 342 344 346 345 344 343 344 345 347 348 347 347 348 348 348 349 351 353
346 343 340 340 343 347 352 356 358 358 357 355 352 350 346 340 336 340 343 340 331 325 329 333 331 330 331 330 328 328 329 329 329 330 328 326 327 327 324 323 323 323 323 324 323 322 323 324 326 327 327 327 327 330 334 338 340 340 341 342 342 342 343 343 343 343 343 343 344 345 345 345 344 343 343 345 347 348 348 348 347 348 348 349 350 352 353
341 338 335 334 337 342 349 355 356 353 351 352 352 350 347 344 342 341 339 337 333 328 329 331 330 329 329 329 328 328 329 328 329 329 327 326 326 325 323 323 323 321 323 324 323 322 323 323 324 325 326 327 329 331 334 337 339 340 340 341 341 342 343 343 343 343 343 344 344 345 345 344 343 344 345 346 348 348 349 348 348 348 349 350 351 352 353
339 336 332 330 332 337 345 352 353 350 352 355 353 350 347 346 344 340 335 333 333 331 328 328 329 330 331 332 331 330 330 329 329 329 327 326 326 325 325 325 323 322 325 326 323 322 323 323 322 325 328 329 330 333 335 336 338 339 339 340 341 342 343 343 342 342 343 344 345 345 344 344 344 345 346 347 348 348 349 349 348 348 349 350 351 352 353
340 337 332 329 329 335 343 349 349 347 350 352 351 348 346 343 339 335 331 327 328 329 329 329 331 333 334 335 334 332 330 330 328 327 328 327 327 327 327 326 323 323 326 326 323 322 324 323 323 327 332 332 333 335 336 336 337 338 339 339 341 341 342 342 341 341 342 344 345 345 344 345 346 346 347 347 348 349 349 349 349 348 349 349 351 352 353
344 341 337 333 332 337 343 344 344 341 341 343 345 344 341 337 334 332 329 326 326 330 333 334 336 337 338 338 337 334 331 331 329 327 328 328 328 328 327 325 324 323 323 323 322 323 324 323 323 327 334 336 336 337 337 336 336 337 338 339 340 340 341 341 340 340 342 343 344 345 345 346 346 346 346 347 348 348 349 349 348 348 349 349 350 352 353
349 346 343 340 339 342 343 340 337 336 335 335 338 338 334 331 330 331 332 332 334 339 342 344 344 344 342 341 339 336 334 332 330 329 328 327 328 329 327 324 322 322 321 321 323 324 323 321 321 326 334 338 338 337 336 336 336 337 338 339 340 340 340 340 340 340 341 343 344 345 345 346 346 346 346 347 347 348 349 349 348 348 348 349 350 352 353
354 352 352 350 347 346 344 339 335 332 332 333 334 331 328 328 331 336 341 345 350 352 353 351 348 346 345 344 341 339 337 335 333 331 331 330 330 330 328 325 322 320 319 321 324 323 320 318 321 328 334 336 336 336 335 334 335 336 337 338 339 339 339 339 340 340 341 342 343 344 345 345 345 346 346 346 347 347 348 348 348 348 348 348 349 351 353
359 359 358 357 354 350 345 338 335 334 333 331 331 328 327 332 340 347 355 1 1 359 358 355 351 349 349 347 345 342 340 339 337 335 334 333 332 331 329 326 322 318 317 320 322 321 317 317 322 330 334 334 333 333 332 332 333 335 336 337 338 339 339 339 339 340 341 341 341 343 344 345 345 345 345 345 346 347 348 348 348 348 348 348 349 351 353
4 4 1 0 1 356 348 340 338 338 334 328 328 330 336 346 354 360 6 8 5 2 359 357 354 352 350 349 348 346 343 342 340 337 334 334 333 331 329 326 321 318 319 320 319 319 318 319 324 330 332 331 330 330 330 330 331 333 334 336 338 339 338 338 339 339 339 339 340 342 343 344 345 345 345 345 346 346 347 347 347 348 348 348 349 350 352
7 7 5 5 7 3 353 344 344 344 338 334 337 342 350 359 5 8 9 7 2 0 359 356 354 352 350 349 349 347 344 342 339 336 334 333 332 329 325 322 320 320 320 319 319 321 323 326 328 330 330 329 328 329 329 329 329 330 332 334 336 338 338 338 338 338 338 338 339 341 342 343 344 344 345 345 345 346 346 347 347 347 348 348 349 350 352
9 9 8 9 10 6 359 354 356 355 351 353 357 359 2 6 7 6 5 2 358 356 355 354 351 349 347 346 345 345 343 339 336 333 331 328 326 324 322 319 318 318 317 317 320 324 327 329 330 331 330 328 328 328 328 328 328 329 330 333 335 336 337 337 337 336 336 337 338 340 341 342 343 343 344 345 345 345 346 346 347 347 347 348 349 350 351
7 7 6 7 8 7 5 5 7 7 7 9 9 7 5 4 2 359 357 355 352 351 350 350 348 345 343 341 340 340 339 335 331 329 328 325 322 322 321 318 316 315 314 315 321 326 328 328 330 331 330 330 330 329 329 328 328 328 329 331 333 335 335 335 335 335 335 335 336 338 340 341 342 342 344 345 345 345 345 346 346 346 346 347 349 350 350
3 4 2 360 360 3 4 5 5 6 6 3 1 359 356 353 351 350 348 347 346 346 345 343 342 340 339 337 335 334 333 330 325 324 325 322 319 319 319 316 315 314 312 314 322 328 328 327 328 330 330 330 331 330 330 329 329 329 329 331 332 333 333 333 333 333 333 333 335 336 338 340 341 342 343 344 345 345 345 345 346 346 346 346 348 349 349
358 360 359 354 350 351 353 353 352 352 351 347 345 344 343 341 341 342 341 340 340 339 339 338 337 335 334 334 331 329 328 325 320 320 322 320 316 315 313 311 313 316 315 317 324 329 328 326 327 329 329 329 330 330 330 329 329 329 330 330 331 331 331 331 331 331 331 332 333 334 337 339 340 340 341 343 344 344 344 345 345 345 345 346 347 347 348
348 352 354 351 347 346 346 346 345 344 343 339 336 335 334 333 334 334 334 333 333 333 333 333 333 331 330 329 328 327 325 321 315 315 317 315 310 306 303 303 308 316 319 321 326 328 327 326 327 328 327 328 329 329 329 329 329 329 330 330 331 330 329 329 329 329 329 330 331 333 335 337 338 339 340 342 343 344 344 344 344 344 345 346 346 346 347
337 340 342 342 340 341 342 343 344 344 343 341 338 336 332 330 329 328 328 328 328 328 329 329 329 327 327 327 325 324 323 318 313 311 311 309 303 299 298 303 311 317 320 321 324 326 327 328 328 328 327 328 329 328 328 328 328 329 329 330 330 330 329 327 327 327 328 328 329 331 333 335 337 338 339 340 342 343 343 343 344 344 345 345 345 346 346
328 330 332 333 332 333 334 336 336 337 337 338 337 336 333 330 328 327 327 326 326 326 326 326 326 325 325 323 322 321 319 315 312 310 309 308 302 299 302 309 316 318 318 319 321 324 326 328 328 327 328 328 329 328 328 327 327 327 328 329 329 329 328 326 325 326 326 327 327 328 330 333 335 336 337 339 341 342 342 343 344 344 344 343 344 344 346
320 321 323 325 325 325 327 329 329 329 329 330 330 329 327 326 325 324 323 323 323 321 321 320 321 321 319 317 317 316 315 312 310 310 311 311 307 306 310 316 318 317 317 319 320 321 324 327 327 327 327 328 329 328 328 327 326 326 326 327 328 328 327 326 325 324 325 325 326 326 328 330 332 334 336 338 339 340 341 342 343 343 342 342 342 343 344
Height
3164 3165 3166 3166 3167 3167 3168 3168 3168 3168 3169 3169 3169 3169 3169 3169 3170 3169 3169 3169 3169 3168 3169 3169 3168 3168 3167 3167 3167 3167 3166 3166 3166 3166 3165 3164 3164 3163 3162 3161 3160 3159 3157 3156 3154 3152 3150 3149 3147 3146 3144 3142 3140 3138 3136 3133 3131 3130 3128 3126 3123 3119 3115 3109 3101 3095 3094 3094 3094 3093 3092 3090 3088 3086 3083 3081 3079 3076 3074 3069 3061 3056 3051 3049 3046 3033 3025
3166 3167 3167 3168 3168 3169 3169 3169 3169 3170 3170 3170 3170 3170 3171 3171 3171 3170 3170 3170 3170 3170 3170 3170 3169 3168 3168 3167 3167 3167 3167 3166 3166 3166 3165 3164 3164 3163 3162 3161 3160 3159 3157 3156 3154 3152 3150 3148 3147 3146 3144 3141 3139 3137 3135 3133 3131 3129 3127 3125 3123 3121 3118 3113 3105 3097 3092 3089 3089 3088 3087 3087 3085 3084 3082 3080 3077 3074 3070 3066 3061 3054 3048 3049 3045 3031 3025
3168 3168 3169 3169 3170 3170 3170 3171 3171 3171 3171 3171 3172 3172 3172 3172 3172 3172 3171 3171 3171 3171 3170 3170 3170 3169 3168 3168 3168 3167 3167 3167 3166 3166 3165 3164 3164 3163 3162 3161 3160 3159 3157 3155 3154 3152 3150 3148 3147 3145 3143 3140 3138 3136 3134 3133 3131 3128 3126 3124 3123 3121 3119 3116 3113 3109 3103 3097 3093 3090 3086 3084 3082 3080 3079 3077 3075 3073 3068 3063 3060 3053 3045 3046 3045 3032 3024
3170 3170 3171 3171 3171 3172 3172 3173 3173 3173 3173 3173 3173 3173 3174 3173 3173 3173 3172 3172 3172 3172 3171 3170 3170 3169 3169 3168 3168 3168 3167 3167 3166 3166 3165 3165 3164 3163 3162 3161 3159 3158 3157 3155 3153 3151 3150 3148 3146 3144 3142 3139 3137 3136 3134 3132 3130 3128 3126 3123 3121 3119 3118 3116 3114 3112 3109 3103 3098 3095 3090 3085 3080 3076 3075 3074 3072 3071 3067 3063 3059 3053 3044 3040 3040 3034 3022
3172 3172 3173 3173 3173 3174 3174 3174 3174 3174 3174 3175 3175 3175 3174 3174 3174 3173 3173 3173 3173 3173 3171 3171 3171 3170 3170 3169 3169 3168 3168 3167 3167 3166 3166 3165 3164 3163 3162 3161 3159 3158 3156 3154 3153 3151 3149 3148 3146 3144 3142 3139 3137 3135 3134 3132 3130 3127 3125 3122 3119 3117 3115 3114 3112 3108 3105 3101 3097 3094 3091 3086 3080 3075 3072 3071 3070 3067 3065 3062 3058 3054 3046 3035 3032 3032 3023
3174 3174 3175 3175 3175 3176 3176 3176 3176 3176 3176 3176 3176 3175 3175 3175 3174 3174 3174 3173 3173 3173 3172 3172 3171 3171 3171 3170 3169 3169 3168 3167 3167 3166 3166 3165 3164 3163 3162 3161 3159 3158 3156 3154 3153 3151 3149 3147 3146 3144 3141 3139 3138 3136 3133 3131 3129 3126 3123 3120 3118 3116 3113 3111 3107 3103 3100 3098 3095 3091 3088 3083 3079 3075 3072 3070 3067 3063 3061 3059 3055 3052 3048 3037 3029 3028 3022
3176 3176 3177 3177 3177 3178 3178 3178 3178 3177 3177 3177 3177 3176 3176 3176 3175 3175 3175 3174 3174 3173 3173 3172 3172 3171 3171 3170 3169 3169 3168 3168 3167 3166 3166 3165 3164 3163 3162 3160 3159 3157 3155 3153 3151 3149 3147 3146 3144 3142 3140 3138 3137 3135 3132 3130 3128 3125 3123 3120 3117 3115 3111 3108 3104 3098 3095 3095 3092 3088 3084 3080 3076 3074 3072 3068 3065 3062 3058 3056 3052 3049 3045 3039 3031 3024 3020
3178 3178 3179 3179 3179 3180 3179 3179 3179 3179 3179 3178 3178 3178 3177 3177 3176 3176 3175 3175 3174 3174 3173 3173 3172 3172 3171 3170 3170 3169 3168 3168 3167 3166 3166 3165 3164 3163 3161 3160 3158 3156 3155 3152 3150 3148 3146 3144 3143 3141 3140 3138 3136 3134 3132 3130 3128 3125 3123 3120 3117 3113 3109 3106 3102 3095 3090 3090 3087 3084 3081 3077 3073 3072 3069 3065 3061 3059 3056 3052 3049 3044 3037 3033 3028 3020 3015
3180 3181 3181 3181 3181 3181 3181 3181 3181 3180 3180 3180 3179 3179 3178 3178 3177 3176 3176 3175 3175 3174 3174 3173 3173 3172 3172 3171 3170 3169 3168 3168 3167 3166 3166 3164 3163 3162 3161 3159 3158 3156 3154 3152 3150 3148 3146 3145 3143 3141 3139 3137 3135 3133 3131 3129 3127 3125 3123 3120 3116 3113 3108 3104 3100 3093 3087 3087 3084 3079 3077 3075 3071 3068 3064 3061 3058 3056 3053 3051 3048 3042 3034 3026 3021 3015 3009
3183 3183 3183 3183 3183 3183 3183 3182 3182 3182 3181 3181 3180 3180 3179 3178 3178 3177 3176 3176 3175 3175 3174 3173 3173 3173 3172 3171 3170 3169 3168 3168 3167 3166 3165 3164 3163 3162 3160 3159 3158 3156 3154 3152 3150 3148 3146 3145 3143 3141 3139 3137 3136 3134 3131 3129 3127 3124 3122 3119 3115 3113 3107 3103 3100 3092 3084 3084 3083 3077 3072 3069 3067 3066 3063 3060 3057 3054 3051 3048 3045 3041 3035 3026 3018 3013 3009
3185 3185 3185 3185 3184 3184 3184 3184 3183 3183 3182 3182 3181 3180 3180 3179 3178 3178 3177 3176 3176 3175 3174 3174 3173 3173 3172 3171 3170 3169 3168 3168 3167 3166 3165 3164 3163 3162 3160 3159 3157 3155 3154 3152 3150 3148 3146 3145 3143 3142 3140 3138 3136 3134 3132 3130 3127 3124 3121 3118 3114 3112 3108 3104 3101 3094 3085 3082 3080 3075 3070 3069 3068 3066 3064 3060 3056 3051 3046 3043 3041 3038 3033 3028 3022 3016 3010
3186 3186 3186 3186 3186 3185 3185 3185 3184 3183 3183 3182 3181 3181 3180 3179 3179 3178 3177 3177 3176 3175 3175 3174 3173 3173 3172 3171 3169 3169 3168 3167 3167 3166 3165 3164 3163 3161 3160 3159 3157 3155 3154 3152 3150 3148 3146 3145 3143 3141 3140 3138 3136 3134 3132 3129 3127 3123 3121 3118 3114 3111 3107 3104 3101 3096 3088 3083 3080 3075 3072 3072 3070 3066 3063 3060 3057 3053 3047 3042 3040 3035 3029 3025 3021 3014 3008
3188 3188 3187 3187 3187 3186 3186 3185 3185 3184 3183 3182 3182 3181 3180 3180 3179 3178 3178 3177 3176 3175 3175 3174 3173 3172 3171 3170 3169 3168 3168 3167 3166 3165 3164 3163 3162 3161 3160 3158 3157 3155 3153 3151 3150 3148 3146 3144 3143 3141 3140 3138 3135 3133 3131 3128 3126 3123 3120 3118 3114 3110 3107 3103 3100 3096 3089 3083 3083 3080 3074 3071 3069 3066 3062 3058 3053 3050 3044 3036 3033 3031 3026 3022 3016 3010 3004
3189 3189 3188 3188 3188 3187 3187 3186 3185 3184 3184 3183 3182 3181 3181 3180 3179 3178 3178 3177 3176 3175 3175 3174 3173 3172 3171 3170 3169 3168 3168 3167 3166 3165 3164 3163 3162 3161 3159 3158 3156 3154 3153 3151 3149 3147 3146 3144 3142 3140 3138 3136 3133 3131 3129 3127 3125 3122 3120 3118 3115 3111 3108 3104 3100 3098 3093 3087 3084 3078 3070 3067 3066 3064 3060 3055 3049 3047 3042 3035 3030 3028 3025 3020 3013 3005 2999
3190 3189 3189 3189 3189 3188 3187 3186 3186 3185 3184 3183 3182 3181 3181 3180 3179 3178 3178 3177 3176 3175 3174 3173 3172 3172 3171 3170 3169 3168 3167 3166 3165 3164 3163 3162 3161 3160 3158 3157 3155 3154 3152 3150 3148 3147 3145 3143 3140 3138 3136 3134 3132 3130 3128 3127 3125 3122 3120 3117 3114 3111 3108 3105 3102 3099 3096 3092 3085 3076 3067 3064 3064 3062 3060 3057 3053 3049 3044 3037 3030 3026 3022 3016 3010 3001 2994
3191 3190 3190 3190 3189 3188 3187 3186 3185 3184 3183 3183 3182 3181 3180 3180 3179 3178 3177 3177 3176 3175 3174 3173 3172 3171 3170 3170 3169 3168 3167 3166 3165 3164 3163 3162 3160 3159 3157 3156 3155 3153 3151 3150 3148 3146 3144 3141 3139 3138 3136 3134 3132 3130 3128 3125 3123 3121 3119 3116 3113 3110 3107 3105 3102 3099 3096 3094 3090 3084 3075 3068 3064 3062 3059 3056 3052 3047 3041 3032 3025 3022 3018 3013 3006 2999 2992
3191 3191 3190 3190 3189 3188 3187 3186 3185 3184 3183 3182 3182 3181 3180 3180 3179 3178 3177 3176 3175 3174 3173 3172 3171 3171 3170 3169 3168 3167 3166 3165 3165 3163 3162 3161 3159 3158 3157 3155 3154 3152 3151 3149 3147 3145 3143 3141 3139 3138 3136 3134 3132 3129 3127 3124 3121 3118 3116 3114 3112 3109 3106 3103 3100 3097 3095 3093 3089 3085 3079 3071 3066 3062 3057 3051 3048 3045 3038 3028 3019 3015 3014 3010 3003 2997 2990
3192 3191 3190 3189 3189 3188 3187 3186 3185 3184 3183 3182 3181 3181 3180 3179 3178 3177 3177 3176 3175 3174 3173 3172 3171 3170 3170 3169 3168 3167 3166 3165 3164 3163 3161 3160 3159 3157 3156 3155 3153 3152 3150 3148 3147 3145 3143 3141 3139 3137 3135 3133 3131 3129 3126 3124 3121 3117 3115 3112 3109 3106 3104 3101 3099 3095 3092 3090 3086 3080 3075 3070 3066 3062 3056 3049 3043 3039 3036 3031 3022 3015 3012 3008 3001 2995 2988
3192 3191 3190 3189 3188 3187 3186 3185 3184 3183 3182 3182 3181 3180 3179 3178 3178 3177 3176 3175 3174 3173 3172 3171 3171 3170 3169 3168 3167 3167 3166 3165 3164 3162 3161 3160 3158 3157 3156 3154 3153 3151 3149 3148 3146 3144 3142 3140 3138 3136 3134 3132 3131 3129 3126 3124 3121 3118 3115 3111 3108 3105 3102 3100 3098 3094 3091 3088 3083 3077 3072 3068 3064 3061 3056 3048 3041 3036 3034 3033 3027 3018 3011 3005 2999 2993 2986
3191 3191 3190 3188 3188 3186 3185 3185 3184 3183 3182 3181 3180 3179 3178 3178 3177 3176 3175 3174 3173 3172 3171 3171 3170 3169 3168 3168 3167 3166 3165 3164 3163 3162 3161 3159 3158 3156 3155 3153 3152 3150 3149 3147 3145 3144 3142 3140 3138 3136 3134 3132 3130 3128 3126 3123 3121 3118 3116 3112 3109 3106 3103 3100 3098 3094 3090 3087 3084 3078 3072 3066 3062 3058 3053 3048 3044 3042 3036 3029 3024 3019 3011 3003 2997 2991 2984
3191 3190 3189 3188 3187 3186 3185 3184 3183 3182 3181 3180 3179 3178 3178 3177 3176 3175 3174 3174 3172 3172 3171 3170 3169 3169 3168 3167 3167 3166 3165 3164 3163 3161 3160 3159 3157 3156 3154 3153 3151 3150 3148 3147 3145 3143 3141 3139 3138 3136 3134 3132 3129 3127 3125 3123 3121 3118 3115 3113 3110 3107 3104 3101 3099 3096 3093 3088 3085 3082 3076 3069 3064 3059 3054 3049 3047 3043 3036 3027 3020 3015 3009 3002 2995 2988 2983
3190 3189 3188 3187 3186 3185 3184 3183 3182 3181 3180 3179 3178 3178 3177 3176 3175 3174 3173 3173 3172 3171 3170 3169 3169 3168 3167 3167 3166 3165 3164 3163 3162 3161 3159 3158 3157 3155 3154 3152 3151 3149 3148 3146 3144 3142 3141 3139 3137 3136 3134 3131 3129 3127 3124 3122 3120 3117 3115 3113 3110 3108 3105 3102 3099 3097 3094 3089 3085 3081 3076 3070 3066 3061 3055 3050 3045 3040 3034 3027 3019 3012 3006 3000 2993 2986 2981
3189 3188 3187 3185 3184 3183 3182 3182 3181 3180 3179 3179 3178 3177 3176 3175 3174 3173 3172 3172 3171 3170 3169 3168 3168 3167 3166 3166 3165 3164 3163 3162 3161 3160 3158 3157 3156 3154 3153 3152 3150 3148 3147 3145 3143 3142 3140 3138 3137 3135 3133 3131 3128 3125 3123 3120 3118 3116 3114 3112 3109 3106 3104 3101 3097 3093 3090 3085 3081 3078 3072 3068 3064 3059 3052 3047 3042 3037 3031 3025 3017 3011 3005 2999 2992 2985 2978
3187 3186 3185 3184 3183 3182 3181 3180 3180 3179 3178 3177 3177 3176 3175 3174 3173 3172 3171 3171 3170 3169 3168 3167 3167 3166 3166 3165 3164 3164 3163 3161 3160 3159 3157 3156 3155 3153 3152 3150 3149 3147 3146 3144 3142 3141 3139 3138 3136 3134 3132 3130 3127 3125 3122 3119 3117 3114 3112 3109 3106 3103 3100 3097 3094 3090 3085 3080 3077 3073 3068 3063 3060 3055 3049 3044 3039 3033 3028 3021 3015 3009 3003 2997 2991 2984 2977
3186 3185 3184 3183 3182 3181 3180 3179 3179 3178 3177 3176 3175 3174 3173 3173 3172 3171 3170 3170 3169 3168 3167 3167 3166 3165 3165 3164 3164 3163 3162 3160 3159 3158 3156 3155 3153 3152 3151 3149 3148 3146 3145 3143 3142 3140 3138 3137 3135 3133 3131 3129 3126 3124 3121 3119 3116 3113 3110 3107 3104 3101 3097 3094 3090 3087 3083 3077 3072 3068 3064 3061 3057 3051 3045 3039 3034 3030 3025 3019 3013 3006 3000 2995 2990 2983 2975
3186 3184 3183 3182 3181 3180 3179 3178 3178 3177 3176 3175 3174 3173 3173 3172 3171 3170 3169 3169 3168 3167 3167 3166 3165 3165 3164 3163 3163 3162 3161 3159 3158 3156 3155 3154 3152 3151 3150 3148 3147 3145 3144 3142 3141 3139 3138 3136 3134 3133 3131 3128 3126 3123 3120 3118 3115 3112 3109 3106 3103 3100 3096 3092 3087 3082 3078 3074 3069 3063 3059 3057 3054 3049 3043 3037 3032 3027 3022 3016 3010 3004 2998 2993 2988 2982 2974
3185 3184 3183 3182 3180 3179 3178 3177 3177 3176 3175 3174 3173 3172 3171 3170 3170 3169 3168 3168 3167 3166 3166 3165 3164 3164 3163 3163 3162 3161 3160 3158 3157 3155 3154 3153 3151 3150 3148 3147 3146 3144 3143 3142 3140 3139 3137 3135 3133 3131 3130 3127 3125 3122 3119 3117 3114 3111 3108 3105 3102 3097 3093 3089 3084 3078 3074 3070 3066 3060 3055 3051 3048 3045 3040 3034 3029 3024 3018 3012 3007 3002 2996 2990 2984 2979 2974
3185 3184 3182 3181 3180 3179 3178 3177 3176 3175 3174 3173 3172 3171 3170 3169 3169 3168 3168 3167 3166 3166 3165 3164 3164 3163 3162 3162 3161 3160 3159 3157 3156 3155 3153 3152 3150 3149 3147 3146 3145 3143 3142 3141 3139 3138 3136 3134 3132 3130 3128 3126 3123 3121 3118 3116 3113 3110 3107 3103 3100 3096 3091 3087 3083 3078 3073 3070 3066 3062 3056 3051 3046 3042 3038 3032 3027 3021 3015 3010 3005 3000 2994 2988 2981 2975 2970
3185 3183 3182 3181 3180 3178 3177 3176 3175 3174 3173 3172 3171 3170 3169 3169 3168 3167 3167 3166 3166 3165 3165 3164 3163 3163 3162 3161 3160 3159 3158 3157 3155 3154 3152 3151 3149 3148 3146 3145 3143 3142 3141 3140 3138 3136 3135 3133 3131 3129 3127 3125 3122 3120 3117 3114 3111 3109 3105 3102 3098 3095 3091 3087 3082 3077 3073 3069 3065 3061 3055 3050 3045 3041 3036 3031 3025 3019 3014 3009 3004 2999 2993 2987 2980 2973 2967
3185 3183 3182 3181 3179 3178 3176 3175 3174 3173 3172 3171 3170 3169 3168 3168 3167 3167 3166 3166 3165 3165 3164 3164 3163 3162 3161 3160 3159 3158 3157 3155 3154 3153 3151 3150 3148 3147 3145 3144 3142 3141 3140 3138 3137 3135 3134 3132 3130 3128 3126 3124 3121 3118 3115 3112 3109 3106 3103 3100 3097 3093 3090 3085 3081 3075 3071 3067 3063 3059 3054 3049 3044 3040 3035 3029 3023 3017 3013 3008 3003 2998 2992 2986 2980 2974 2967
3184 3183 3182 3180 3179 3177 3176 3174 3173 3172 3171 3170 3169 3169 3168 3167 3167 3166 3166 3166 3165 3165 3164 3163 3162 3161 3160 3159 3158 3157 3156 3154 3153 3152 3150 3148 3147 3145 3144 3143 3141 3140 3138 3137 3135 3134 3132 3131 3129 3127 3125 3122 3120 3117 3114 3110 3107 3104 3101 3098 3095 3091 3087 3083 3079 3074 3069 3064 3060 3057 3054 3049 3043 3037 3032 3026 3020 3015 3011 3007 3001 2996 2990 2985 2979 2973 2966
3184 3183 3181 3180 3178 3177 3175 3174 3173 3172 3171 3170 3169 3168 3168 3167 3167 3166 3166 3165 3165 3164 3163 3163 3162 3160 3159 3158 3157 3156 3155 3153 3152 3150 3149 3147 3146 3144 3143 3142 3140 3139 3137 3136 3134 3133 3131 3129 3128 3126 3123 3121 3118 3115 3112 3109 3106 3102 3099 3096 3092 3088 3084 3080 3076 3072 3067 3062 3057 3054 3051 3046 3040 3034 3028 3023 3019 3014 3009 3005 3000 2994 2989 2984 2979 2974 2967
3184 3183 3181 3180 3178 3177 3175 3174 3173 3172 3171 3170 3169 3168 3168 3167 3167 3166 3166 3165 3164 3164 3163 3162 3161 3160 3158 3157 3156 3155 3153 3152 3150 3149 3148 3146 3145 3143 3142 3140 3139 3137 3136 3134 3133 3131 3130 3128 3126 3124 3121 3119 3116 3113 3110 3108 3104 3100 3097 3093 3089 3085 3082 3078 3074 3070 3065 3060 3055 3050 3046 3042 3037 3032 3027 3023 3018 3013 3007 3001 2997 2992 2988 2983 2978 2973 2968
3184 3182 3181 3179 3178 3176 3175 3174 3173 3172 3171 3170 3169 3169 3168 3167 3167 3166 3165 3165 3164 3163 3162 3161 3160 3159 3158 3156 3155 3154 3152 3151 3149 3148 3147 3145 3144 3142 3141 3139 3137 3136 3135 3133 3131 3130 3128 3126 3124 3122 3120 3117 3114 3111 3108 3105 3102 3098 3094 3090 3086 3082 3079 3075 3071 3067 3063 3058 3054 3049 3044 3039 3035 3031 3027 3022 3016 3010 3005 2999 2994 2990 2986 2981 2975 2970 2964
3184 3182 3180 3179 3177 3176 3175 3173 3172 3171 3171 3170 3169 3169 3168 3167 3167 3166 3165 3164 3164 3163 3162 3161 3160 3158 3157 3156 3154 3153 3151 3150 3148 3147 3146 3144 3143 3141 3140 3138 3136 3135 3133 3132 3130 3128 3126 3125 3122 3120 3118 3116 3113 3109 3106 3103 3100 3096 3092 3088 3084 3080 3076 3072 3068 3064 3060 3056 3052 3047 3042 3038 3034 3030 3025 3019 3013 3008 3003 2998 2993 2988 2983 2978 2972 2967 2961
3183 3181 3179 3178 3177 3175 3174 3173 3172 3171 3171 3170 3169 3169 3168 3167 3166 3166 3165 3164 3163 3162 3161 3160 3159 3158 3156 3155 3153 3152 3151 3149 3147 3146 3144 3143 3142 3140 3138 3137 3135 3133 3132 3131 3129 3126 3125 3123 3121 3118 3116 3113 3110 3107 3104 3100 3097 3093 3089 3085 3081 3077 3073 3069 3065 3061 3058 3053 3049 3045 3041 3037 3033 3028 3023 3017 3011 3006 3001 2996 2991 2986 2981 2976 2971 2965 2960
3182 3180 3178 3177 3176 3175 3174 3173 3172 3171 3171 3170 3169 3169 3168 3167 3166 3165 3164 3164 3163 3162 3161 3160 3158 3157 3155 3154 3152 3151 3150 3148 3146 3145 3143 3142 3140 3139 3137 3135 3134 3132 3131 3129 3127 3125 3123 3121 3118 3116 3114 3111 3108 3105 3101 3098 3094 3091 3087 3083 3079 3074 3070 3066 3062 3059 3055 3051 3047 3043 3039 3035 3031 3026 3021 3015 3010 3004 2999 2994 2989 2984 2979 2975 2969 2964 2958
3180 3179 3177 3176 3175 3174 3173 3173 3172 3171 3170 3170 3169 3168 3168 3167 3166 3165 3164 3163 3162 3161 3160 3159 3158 3156 3155 3153 3151 3150 3149 3147 3145 3144 3142 3141 3139 3138 3136 3134 3133 3131 3129 3127 3126 3124 3121 3119 3116 3114 3112 3109 3106 3102 3099 3095 3092 3088 3085 3080 3076 3072 3068 3064 3060 3056 3052 3048 3044 3040 3037 3032 3028 3023 3018 3013 3008 3002 2997 2993 2988 2983 2978 2973 2968 2963 2957
3179 3178 3176 3175 3174 3174 3173 3172 3172 3171 3170 3170 3169 3168 3167 3166 3165 3164 3163 3162 3161 3160 3159 3158 3157 3155 3154 3152 3151 3149 3148 3146 3144 3143 3141 3140 3138 3137 3135 3133 3132 3130 3127 3125 3124 3122 3119 3116 3114 3111 3109 3106 3103 3100 3096 3093 3089 3086 3082 3078 3074 3070 3066 3062 3058 3054 3050 3045 3041 3037 3033 3028 3024 3020 3015 3011 3006 3001 2996 2991 2986 2982 2977 2972 2967 2962 2957
3179 3177 3176 3175 3174 3173 3173 3172 3172 3171 3170 3170 3169 3168 3167 3166 3165 3164 3163 3162 3161 3160 3159 3157 3156 3155 3153 3151 3150 3148 3146 3145 3143 3142 3140 3139 3138 3136 3134 3132 3131 3129 3126 3124 3122 3120 3117 3114 3111 3108 3105 3103 3100 3097 3094 3090 3087 3083 3080 3076 3072 3068 3064 3060 3056 3052 3048 3043 3039 3035 3031 3026 3022 3018 3013 3009 3004 3000 2995 2990 2985 2980 2976 2971 2966 2961 2956
3179 3177 3176 3175 3174 3173 3173 3172 3171 3171 3170 3169 3169 3168 3166 3165 3164 3163 3162 3161 3160 3159 3158 3157 3155 3154 3152 3150 3148 3147 3145 3144 3142 3141 3139 3138 3137 3135 3133 3132 3130 3127 3124 3122 3121 3118 3115 3112 3109 3106 3103 3100 3097 3094 3091 3088 3084 3081 3077 3074 3070 3066 3062 3058 3055 3050 3046 3041 3037 3033 3029 3025 3021 3016 3011 3007 3002 2998 2993 2988 2984 2979 2975 2970 2965 2960 2955
3178 3177 3176 3175 3174 3173 3173 3172 3171 3171 3170 3169 3168 3167 3166 3165 3164 3163 3162 3161 3160 3159 3157 3156 3154 3153 3151 3149 3147 3146 3144 3143 3141 3140 3138 3137 3136 3134 3132 3130 3129 3126 3123 3121 3119 3116 3113 3110 3106 3103 3101 3098 3095 3092 3088 3085 3082 3078 3075 3071 3068 3064 3060 3056 3052 3048 3044 3040 3035 3031 3027 3023 3019 3015 3010 3006 3001 2996 2992 2987 2983 2978 2973 2968 2963 2959 2954
3179 3177 3176 3175 3174 3173 3172 3172 3171 3170 3170 3169 3168 3167 3166 3165 3164 3163 3162 3161 3159 3158 3157 3155 3154 3152 3150 3149 3147 3145 3143 3142 3140 3139 3137 3136 3134 3132 3131 3129 3127 3125 3123 3120 3118 3114 3111 3108 3104 3101 3098 3095 3092 3089 3086 3082 3079 3076 3072 3069 3065 3062 3058 3054 3050 3046 3042 3038 3034 3029 3025 3021 3017 3013 3009 3004 2999 2995 2990 2985 2981 2977 2972 2967 2962 2957 2952
3179 3178 3176 3175 3174 3173 3172 3171 3171 3170 3169 3168 3167 3166 3165 3164 3163 3162 3161 3160 3159 3158 3156 3155 3153 3151 3150 3148 3146 3144 3142 3141 3140 3138 3136 3135 3133 3131 3129 3127 3125 3123 3121 3118 3115 3112 3109 3106 3103 3099 3096 3093 3090 3086 3083 3079 3076 3072 3069 3066 3062 3059 3055 3052 3048 3044 3040 3036 3032 3028 3023 3019 3015 3012 3007 3003 2998 2993 2988 2984 2979 2975 2970 2966 2961 2956 2951
3179 3178 3177 3175 3174 3173 3172 3171 3171 3170 3169 3168 3167 3166 3165 3164 3163 3162 3161 3160 3158 3157 3155 3154 3152 3150 3149 3147 3145 3143 3142 3140 3139 3137 3135 3134 3132 3130 3128 3126 3124 3121 3119 3115 3113 3110 3106 3103 3100 3097 3094 3091 3087 3084 3080 3077 3073 3069 3066 3063 3060 3056 3053 3049 3045 3041 3038 3034 3030 3025 3021 3017 3013 3009 3005 3000 2995 2991 2986 2982 2977 2973 2969 2965 2960 2955 2950
3180 3178 3177 3176 3175 3174 3173 3172 3171 3170 3169 3168 3167 3166 3165 3164 3163 3162 3160 3159 3157 3156 3154 3153 3151 3149 3148 3146 3144 3142 3141 3139 3137 3136 3134 3132 3130 3128 3126 3124 3122 3119 3116 3113 3110 3107 3104 3100 3097 3094 3091 3088 3085 3081 3078 3074 3070 3066 3063 3060 3057 3053 3050 3046 3043 3039 3035 3031 3027 3023 3019 3015 3011 3007 3003 2999 2994 2989 2984 2979 2975 2971 2967 2963 2958 2954 2949
3180 3179 3177 3176 3175 3174 3173 3172 3171 3170 3169 3168 3167 3165 3164 3163 3162 3161 3159 3158 3156 3155 3153 3151 3150 3148 3146 3145 3143 3141 3140 3138 3136 3134 3133 3131 3128 3126 3124 3122 3119 3117 3114 3110 3107 3104 3101 3098 3095 3092 3088 3085 3082 3078 3075 3071 3067 3064 3060 3057 3053 3050 3047 3044 3040 3036 3033 3029 3025 3021 3017 3013 3009 3005 3001 2997 2993 2988 2982 2978 2973 2969 2965 2961 2956 2952 2948
3180 3179 3177 3176 3175 3174 3173 3172 3171 3169 3168 3167 3166 3165 3163 3162 3161 3159 3158 3157 3155 3153 3152 3150 3148 3147 3145 3143 3141 3140 3138 3136 3134 3132 3131 3129 3126 3124 3122 3119 3117 3114 3111 3107 3104 3101 3098 3095 3092 3089 3086 3082 3079 3075 3072 3068 3065 3061 3057 3054 3050 3047 3044 3041 3037 3033 3030 3026 3023 3019 3015 3011 3007 3003 2999 2995 2991 2987 2982 2977 2972 2968 2964 2959 2954 2950 2946
3181 3179 3178 3176 3175 3174 3173 3171 3170 3169 3168 3166 3165 3164 3162 3161 3160 3158 3157 3155 3154 3152 3150 3149 3147 3145 3143 3141 3140 3138 3136 3134 3132 3130 3129 3127 3124 3122 3119 3116 3113 3111 3108 3105 3101 3098 3095 3092 3089 3086 3083 3079 3076 3073 3069 3065 3062 3058 3054 3051 3047 3044 3041 3038 3034 3030 3027 3023 3020 3016 3013 3009 3005 3001 2997 2993 2989 2985 2980 2976 2971 2967 2962 2958 2954 2949 2945
3180 3179 3178 3176 3175 3174 3172 3171 3169 3168 3167 3165 3164 3163 3161 3160 3159 3157 3155 3154 3152 3150 3149 3147 3145 3143 3141 3140 3137 3135 3134 3132 3130 3128 3126 3124 3122 3119 3116 3113 3110 3107 3104 3101 3098 3095 3092 3089 3086 3082 3079 3076 3073 3069 3066 3062 3059 3055 3051 3048 3044 3041 3038 3034 3031 3027 3024 3020 3017 3014 3010 3006 3003 2999 2995 2992 2988 2983 2979 2975 2970 2965 2961 2957 2953 2949 2944
3180 3179 3177 3176 3174 3173 3172 3170 3169 3167 3166 3164 3163 3161 3160 3158 3157 3155 3154 3152 3151 3149 3147 3145 3143 3141 3139 3137 3135 3133 3131 3129 3127 3124 3122 3121 3119 3116 3112 3109 3106 3104 3101 3098 3095 3092 3089 3086 3083 3079 3076 3073 3070 3066 3063 3059 3056 3052 3048 3045 3041 3038 3035 3031 3028 3024 3021 3017 3014 3011 3007 3004 3000 2997 2993 2989 2985 2982 2978 2974 2969 2964 2960 2956 2952 2948 2944
3179 3178 3176 3175 3174 3172 3171 3169 3168 3166 3165 3163 3162 3160 3159 3157 3155 3154 3152 3150 3149 3147 3145 3144 3142 3140 3138 3135 3133 3131 3129 3127 3124 3121 3118 3117 3115 3112 3108 3105 3103 3100 3097 3094 3092 3089 3086 3083 3079 3076 3073 3070 3067 3063 3060 3056 3052 3049 3045 3042 3038 3035 3032 3028 3025 3021 3018 3014 3011 3008 3004 3001 2998 2994 2991 2987 2983 2979 2975 2972 2967 2963 2959 2955 2951 2947 2943